Weather History for Hurlburt Field, FL

Change the Weather History Date:

Friday, November 2, 2012

  Actual Average Record
Temperature  
Mean Temperature 62 °F -  
Max Temperature 77 °F 73 °F 82 °F (2001)
Min Temperature 46 °F 54 °F 34 °F (2014)
Degree Days  
Heating Degree Days 4    
Growing Degree Days 12 (Base 50)    
Moisture  
Dew Point 60 °F    
Average Humidity 81    
Maximum Humidity 97    
Minimum Humidity 64    
Precipitation  
Precipitation 0.00 in - - ()
Sea Level Pressure  
Sea Level Pressure 30.06 in    
Wind  
Wind Speed 5 mph (West)    
Max Wind Speed 14 mph    
Max Gust Speed 18 mph    
Visibility 10 miles    
Events      
Averages and records for this station are not official NWS values.
T = Trace of Precipitation, MM = Missing Value Source: NWS Daily Summary

Daily Weather History Graph

Daily Weather History Graph

Search for Another Location

Airport:

Trip Planner

Search our weather history database for the weather conditions in past years. The results will help you decide how hot, cold, wet, or windy it might be!

Date:

Astronomy

Nov. 02, 2012 Rise Set
Actual Time 7:02 AM CDT 5:57 PM CDT
Civil Twilight 6:37 AM CDT 6:22 PM CDT
Nautical Twilight 6:08 AM CDT 6:51 PM CDT
Astronomical Twilight 5:40 AM CDT 7:19 PM CDT
Moon 8:52 PM CDT (11/2) 10:14 AM CDT (11/2)
Length of Visible Light 11h 45m
Length of Day
10h 55m
Waning Gibbous, 87% of the Moon is Illuminated
Nov 2
Waning Gibbous
Nov 6
Last Quarter
Nov 13
New
Nov 20
First Quarter
Nov 28
Full

Hourly Weather History & Observations

Time (CDT) Temp. Windchill Dew Point Humidity Pressure Visibility Wind Dir Wind Speed Gust Speed Precip Events Conditions
12:55 AM 53.8 °F - 51.4 °F 92% 30.04 in 10.0 mi Calm Calm - N/A   Clear
1:55 AM 47.8 °F - 46.8 °F 96% 30.04 in 10.0 mi North 5.8 mph - N/A   Clear
2:55 AM 48.2 °F - 46.4 °F 93% 30.04 in 10.0 mi North 4.6 mph - N/A   Clear
3:55 AM 46.6 °F - 45.1 °F 95% 30.04 in 10.0 mi NNE 4.6 mph - N/A   Clear
4:55 AM 46.4 °F 45.2 °F 45.5 °F 97% 30.04 in 10.0 mi North 3.5 mph - N/A   Clear
5:55 AM 46.4 °F - 45.0 °F 95% 30.04 in 10.0 mi Calm Calm - N/A   Clear
6:55 AM 46.2 °F 43.3 °F 45.1 °F 96% 30.05 in 10.0 mi North 5.8 mph - N/A   Clear
7:55 AM 50.2 °F - 48.9 °F 95% 30.06 in 10.0 mi North 4.6 mph - N/A   Clear
8:55 AM 61.0 °F - 54.9 °F 80% 30.08 in 10.0 mi Calm Calm - N/A   Clear
9:18 AM 64.4 °F - 57.2 °F 77% 30.08 in 10.0 mi Calm Calm - N/A   Light Drizzle
9:47 AM 71.6 °F - 60.8 °F 69% 30.09 in 10.0 mi South 3.5 mph - N/A   Clear
9:55 AM 71.6 °F - 60.4 °F 68% 30.09 in 10.0 mi South 4.6 mph - 0.00 in   Light Drizzle
10:35 AM 73.4 °F - 62.6 °F 69% 30.09 in 10.0 mi SW 3.5 mph - N/A   Clear
10:37 AM 75.2 °F - 62.6 °F 65% 30.09 in 10.0 mi Variable 4.6 mph - N/A   Light Drizzle
10:41 AM 75.2 °F - 62.6 °F 65% 30.09 in 10.0 mi WSW 6.9 mph - N/A   Clear
10:42 AM 75.2 °F - 62.6 °F 65% 30.09 in 10.0 mi WSW 6.9 mph - N/A   Light Drizzle
10:47 AM 75.2 °F - 62.6 °F 65% 30.09 in 10.0 mi WSW 6.9 mph - N/A   Clear
10:55 AM 74.7 °F - 63.1 °F 67% 30.09 in 10.0 mi WSW 5.8 mph - 0.00 in   Clear
11:07 AM 75.2 °F - 64.4 °F 69% 30.09 in 10.0 mi SSW 5.8 mph - N/A   Light Drizzle
11:08 AM 75.2 °F - 64.4 °F 69% 30.09 in 10.0 mi SW 6.9 mph - N/A   Clear
11:55 AM 77.0 °F - 63.9 °F 64% 30.08 in 10.0 mi West 8.1 mph - 0.00 in   Clear
12:32 PM 77.0 °F - 64.4 °F 65% 30.06 in 10.0 mi Variable 5.8 mph - N/A   Light Drizzle
12:42 PM 77.0 °F - 64.4 °F 65% 30.06 in 10.0 mi WSW 8.1 mph - N/A   Clear
12:55 PM 76.8 °F - 65.1 °F 67% 30.05 in 10.0 mi SW 10.4 mph - 0.00 in   Clear
1:55 PM 77.0 °F - 66.4 °F 70% 30.02 in 10.0 mi SW 10.4 mph - N/A   Clear
2:55 PM 75.6 °F - 69.3 °F 81% 30.02 in 10.0 mi WSW 10.4 mph 18.4 mph N/A   Partly Cloudy
3:55 PM 75.0 °F - 69.1 °F 82% 30.01 in 10.0 mi West 13.8 mph - N/A   Clear
4:55 PM 72.3 °F - 68.7 °F 88% 30.00 in 10.0 mi WSW 9.2 mph - N/A   Clear
5:55 PM 70.3 °F - 67.3 °F 90% 30.01 in 10.0 mi WSW 9.2 mph - N/A   Clear
6:55 PM 69.8 °F - 67.6 °F 93% 30.01 in 10.0 mi West 9.2 mph - N/A   Clear
7:55 PM 69.8 °F - 68.0 °F 94% 30.02 in 10.0 mi West 8.1 mph - N/A   Clear
8:55 PM 69.1 °F - 68.0 °F 96% 30.04 in 10.0 mi West 9.2 mph - N/A   Clear
9:55 PM 68.0 °F - 66.6 °F 95% 30.05 in 10.0 mi West 5.8 mph - N/A   Clear
10:55 PM 67.3 °F - 66.0 °F 96% 30.06 in 10.0 mi WNW 5.8 mph - N/A   Clear
11:55 PM 67.6 °F - 66.7 °F 97% 30.06 in 10.0 mi WNW 5.8 mph - N/A   Clear